Location: Gebenbach
(49.5378°N, 11.8735°E)
Time: 01:49:01
(UTC+00:00)

Meteor 2-3 Rocket - Pass Details

Date: 29 October 2020
Orbit: 842 x 885 km, 81.2° (Epoch: 24 November)

Event Time Altitude Azimuth Distance (km) Brightness Sun altitude
Rises 18:11:17 0° 350° (N) 3,458 7.1 -22.6°
Reaches altitude 10° 18:13:46 10° 355° (N) 2,523 6.3 -23.0°
Maximum altitude 18:19:25 56° 73° (ENE) 1,035 3.8 -23.9°
Enters shadow 18:19:34 56° 80° (E) 1,037 3.8 -23.9°
